Location: Newark
(42.7133°N, 87.7910°W)
Time: 21:56:01
(UTC+00:00)

deb Explorer IX - Visible Passes

Search period start: 23 October 2019 00:00
Search period end: 02 November 2019 00:00
Orbit: 545 x 1106 km, 38.8° (Epoch: 22 October)

Date Brightness Start Highest point End Pass type
(mag) Time Alt. Az. Time Alt. Az. Time Alt. Az.
23 Oct ? 00:35:52 10° WSW 00:38:52 13° SW 00:41:57 10° SSW visible
24 Oct ? 00:14:14 10° WSW 00:16:51 12° SW 00:19:35 10° SSW visible
24 Oct ? 23:52:39 10° WSW 23:54:51 12° SW 23:57:08 10° SSW visible
25 Oct ? 23:31:14 10° SW 23:32:53 11° SW 23:34:34 10° SSW visible
